owner,sensor,date,latitude,longitude,vertical_datum,direction_of_sea_water_velocity,sea_water_speed,upward_sea_water_velocity,qcFlag 
TABS,ioos:station:wmo:42043:1,2009-11-01T00:00:00Z,28.9818,-94.9186,2.0,212.4896025,18.80291467,-99999.0,'11111222,11111222,99999999' 
TABS,ioos:station:wmo:42043:1,2009-11-01T00:30:00Z,28.9818,-94.9186,2.0,214.5655671,28.30688432,-99999.0,'11111222,11111222,99999999' 
TABS,ioos:station:wmo:42043:1,2009-11-01T01:00:00Z,28.9818,-94.9186,2.0,223.6529052,25.87311346,-99999.0,'11111222,11111222,99999999' 
TABS,ioos:station:wmo:42043:1,2009-11-01T01:30:00Z,28.9818,-94.9186,2.0,224.9806175,21.24855995,-99999.0,'11111222,11111222,99999999' 
TABS,ioos:station:wmo:42043:1,2009-11-01T02:00:00Z,28.9818,-94.9186,2.0,233.1387828,25.42200031,-99999.0,'11111222,11111222,99999999' 
TABS,ioos:station:wmo:42043:1,2009-11-01T02:30:00Z,28.9818,-94.9186,2.0,242.387892,18.36118188,-99999.0,'11111222,11111222,99999999' 
TABS,ioos:station:wmo:42043:1,2009-11-01T03:00:00Z,28.9818,-94.9186,2.0,259.6744954,15.1757471,-99999.0,'11111222,11111222,99999999' 
TABS,ioos:station:wmo:42043:1,2009-11-01T03:30:00Z,28.9818,-94.9186,2.0,274.0526267,13.44360815,-99999.0,'11111222,11111222,99999999' 
TABS,ioos:station:wmo:42043:1,2009-11-01T04:00:00Z,28.9818,-94.9186,2.0,281.1163244,10.42559351,-99999.0,'11111222,11111222,99999999' 
TABS,ioos:station:wmo:42043:1,2009-11-01T04:30:00Z,28.9818,-94.9186,2.0,283.1233001,10.04225074,-99999.0,'11111222,11111222,99999999' 
TABS,ioos:station:wmo:42043:1,2009-11-01T05:00:00Z,28.9818,-94.9186,2.0,301.0386117,14.50707758,-99999.0,'11111222,11111222,99999999' 
TABS,ioos:station:wmo:42043:1,2009-11-01T05:30:00Z,28.9818,-94.9186,2.0,304.6404741,10.53797893,-99999.0,'11111222,11111222,99999999' 
TABS,ioos:station:wmo:42043:1,2009-11-01T06:00:00Z,28.9818,-94.9186,2.0,296.8742784,13.27349238,-99999.0,'11111222,11111222,99999999' 
TABS,ioos:station:wmo:42043:1,2009-11-01T06:30:00Z,28.9818,-94.9186,2.0,278.9594831,8.79732914,-99999.0,'11133222,11111222,99999999' 
TABS,ioos:station:wmo:42043:1,2009-11-01T07:00:00Z,28.9818,-94.9186,2.0,275.5657932,10.20811932,-99999.0,'11111222,11111222,99999999' 
TABS,ioos:station:wmo:42043:1,2009-11-01T07:30:00Z,28.9818,-94.9186,2.0,288.3082229,12.82939204,-99999.0,'11111222,11111222,99999999' 
TABS,ioos:station:wmo:42043:1,2009-11-01T08:00:00Z,28.9818,-94.9186,2.0,273.8590922,13.67099119,-99999.0,'11111222,11111222,99999999' 
TABS,ioos:station:wmo:42043:1,2009-11-01T08:30:00Z,28.9818,-94.9186,2.0,265.432406,13.5630675,-99999.0,'11111222,11111222,99999999' 
TABS,ioos:station:wmo:42043:1,2009-11-01T09:00:00Z,28.9818,-94.9186,2.0,262.4234419,14.33513865,-99999.0,'11111222,11111222,99999999' 
TABS,ioos:station:wmo:42043:1,2009-11-01T09:30:00Z,28.9818,-94.9186,2.0,264.9122804,16.46485955,-99999.0,'11111222,11111222,99999999' 
TABS,ioos:station:wmo:42043:1,2009-11-01T10:00:00Z,28.9818,-94.9186,2.0,255.4623093,14.42171973,-99999.0,'11111222,11111222,99999999' 
TABS,ioos:station:wmo:42043:1,2009-11-01T10:30:00Z,28.9818,-94.9186,2.0,242.3429714,18.07518188,-99999.0,'11111222,11111222,99999999' 
TABS,ioos:station:wmo:42043:1,2009-11-01T11:00:00Z,28.9818,-94.9186,2.0,239.0661046,16.26321309,-99999.0,'11111222,11111222,99999999' 
TABS,ioos:station:wmo:42043:1,2009-11-01T11:30:00Z,28.9818,-94.9186,2.0,237.5392916,20.29005914,-99999.0,'11111222,11111222,99999999' 
TABS,ioos:station:wmo:42043:1,2009-11-01T12:00:00Z,28.9818,-94.9186,2.0,259.9320345,21.16590655,-99999.0,'11111222,11111222,99999999' 
TABS,ioos:station:wmo:42043:1,2009-11-01T12:30:00Z,28.9818,-94.9186,2.0,266.7785464,13.8819307,-99999.0,'11111222,11111222,99999999' 
TABS,ioos:station:wmo:42043:1,2009-11-01T13:00:00Z,28.9818,-94.9186,2.0,281.6203653,14.49711695,-99999.0,'11111222,11111222,99999999' 
TABS,ioos:station:wmo:42043:1,2009-11-01T13:30:00Z,28.9818,-94.9186,2.0,274.2277266,25.63975429,-99999.0,'11111222,11111222,99999999' 
TABS,ioos:station:wmo:42043:1,2009-11-01T14:00:00Z,28.9818,-94.9186,2.0,276.8761317,31.07347583,-99999.0,'11111222,11111222,99999999' 
TABS,ioos:station:wmo:42043:1,2009-11-01T14:30:00Z,28.9818,-94.9186,2.0,279.2068689,30.18888703,-99999.0,'11111222,11111222,99999999' 
TABS,ioos:station:wmo:42043:1,2009-11-01T15:00:00Z,28.9818,-94.9186,2.0,280.913997,24.66611644,-99999.0,'11111222,11111222,99999999' 
TABS,ioos:station:wmo:42043:1,2009-11-01T15:30:00Z,28.9818,-94.9186,2.0,276.427434,23.31653919,-99999.0,'11111222,11111222,99999999' 
TABS,ioos:station:wmo:42043:1,2009-11-01T16:00:00Z,28.9818,-94.9186,2.0,284.6395365,23.74070134,-99999.0,'11111222,11111222,99999999' 
TABS,ioos:station:wmo:42043:1,2009-11-01T16:30:00Z,28.9818,-94.9186,2.0,288.7837754,18.19924449,-99999.0,'11111222,11111222,99999999' 
TABS,ioos:station:wmo:42043:1,2009-11-01T17:00:00Z,28.9818,-94.9186,2.0,282.9814205,15.80387611,-99999.0,'11111222,11111222,99999999' 
TABS,ioos:station:wmo:42043:1,2009-11-01T17:30:00Z,28.9818,-94.9186,2.0,278.6429583,18.50006757,-99999.0,'11111222,11111222,99999999' 
TABS,ioos:station:wmo:42043:1,2009-11-01T18:00:00Z,28.9818,-94.9186,2.0,272.5801285,18.21846316,-99999.0,'11111222,11111222,99999999' 
TABS,ioos:station:wmo:42043:1,2009-11-01T18:30:00Z,28.9818,-94.9186,2.0,260.9616834,16.4239094,-99999.0,'11111222,11111222,99999999' 
TABS,ioos:station:wmo:42043:1,2009-11-01T19:00:00Z,28.9818,-94.9186,2.0,258.7815627,23.23390841,-99999.0,'11111222,11111222,99999999' 
TABS,ioos:station:wmo:42043:1,2009-11-01T19:30:00Z,28.9818,-94.9186,2.0,252.2719911,24.33558095,-99999.0,'11111222,11111222,99999999' 
TABS,ioos:station:wmo:42043:1,2009-11-01T20:00:00Z,28.9818,-94.9186,2.0,254.9728884,29.04313,-99999.0,'11111222,11111222,99999999' 
TABS,ioos:station:wmo:42043:1,2009-11-01T20:30:00Z,28.9818,-94.9186,2.0,253.5942077,22.41247197,-99999.0,'11111222,11111222,99999999' 
TABS,ioos:station:wmo:42043:1,2009-11-01T21:00:00Z,28.9818,-94.9186,2.0,245.390016,24.90193768,-99999.0,'11111222,11111222,99999999' 
TABS,ioos:station:wmo:42043:1,2009-11-01T21:30:00Z,28.9818,-94.9186,2.0,244.1252869,29.30803644,-99999.0,'11111222,11111222,99999999' 
TABS,ioos:station:wmo:42043:1,2009-11-01T22:00:00Z,28.9818,-94.9186,2.0,245.1332641,23.68589665,-99999.0,'11111222,11111222,99999999' 
TABS,ioos:station:wmo:42043:1,2009-11-01T22:30:00Z,28.9818,-94.9186,2.0,228.6024321,30.60750235,-99999.0,'11111222,11111222,99999999' 
TABS,ioos:station:wmo:42043:1,2009-11-01T23:00:00Z,28.9818,-94.9186,2.0,233.8732654,31.90468618,-99999.0,'11111222,11111222,99999999' 
TABS,ioos:station:wmo:42043:1,2009-11-01T23:30:00Z,28.9818,-94.9186,2.0,234.8087146,29.96686503,-99999.0,'11111222,11111222,99999999' 
TABS,ioos:station:wmo:42043:1,2009-11-02T00:00:00Z,28.9818,-94.9186,2.0,236.3628737,29.82346895,-99999.0,'11111222,11111222,99999999' 
TABS,ioos:station:wmo:42043:1,2009-11-02T00:30:00Z,28.9818,-94.9186,2.0,231.3644295,36.42128636,-99999.0,'11111222,11111222,99999999' 
TABS,ioos:station:wmo:42043:1,2009-11-02T01:00:00Z,28.9818,-94.9186,2.0,235.8878634,34.28972149,-99999.0,'11111222,11111222,99999999' 
TABS,ioos:station:wmo:42043:1,2009-11-02T01:30:00Z,28.9818,-94.9186,2.0,239.0101151,30.49245152,-99999.0,'11111222,11111222,99999999' 
TABS,ioos:station:wmo:42043:1,2009-11-02T02:00:00Z,28.9818,-94.9186,2.0,232.4942158,40.38848475,-99999.0,'11111222,11111222,99999999' 
TABS,ioos:station:wmo:42043:1,2009-11-02T02:30:00Z,28.9818,-94.9186,2.0,236.8981694,40.22898085,-99999.0,'11111222,11111222,99999999' 
TABS,ioos:station:wmo:42043:1,2009-11-02T03:00:00Z,28.9818,-94.9186,2.0,238.2882008,37.19263502,-99999.0,'11111222,11111222,99999999' 
TABS,ioos:station:wmo:42043:1,2009-11-02T03:30:00Z,28.9818,-94.9186,2.0,240.6172889,43.12774049,-99999.0,'11111222,11111222,99999999' 
TABS,ioos:station:wmo:42043:1,2009-11-02T04:00:00Z,28.9818,-94.9186,2.0,237.0921656,37.77028594,-99999.0,'11111222,11111222,99999999' 
TABS,ioos:station:wmo:42043:1,2009-11-02T04:30:00Z,28.9818,-94.9186,2.0,239.2543017,35.09229545,-99999.0,'11111222,11111222,99999999' 
TABS,ioos:station:wmo:42043:1,2009-11-02T05:00:00Z,28.9818,-94.9186,2.0,242.2984926,30.22416417,-99999.0,'11111222,11111222,99999999' 
TABS,ioos:station:wmo:42043:1,2009-11-02T05:30:00Z,28.9818,-94.9186,2.0,227.0854198,34.77733889,-99999.0,'11111222,11111222,99999999' 
TABS,ioos:station:wmo:42043:1,2009-11-02T06:00:00Z,28.9818,-94.9186,2.0,224.0906579,36.54787819,-99999.0,'11111222,11111222,99999999' 
TABS,ioos:station:wmo:42043:1,2009-11-02T06:30:00Z,28.9818,-94.9186,2.0,215.5389987,41.25512453,-99999.0,'11111222,11111222,99999999' 
TABS,ioos:station:wmo:42043:1,2009-11-02T07:00:00Z,28.9818,-94.9186,2.0,222.108229,42.47340933,-99999.0,'11111222,11111222,99999999' 
TABS,ioos:station:wmo:42043:1,2009-11-02T07:30:00Z,28.9818,-94.9186,2.0,219.8670348,45.13174603,-99999.0,'11111222,11111222,99999999' 
TABS,ioos:station:wmo:42043:1,2009-11-02T08:00:00Z,28.9818,-94.9186,2.0,220.1084163,44.28473552,-99999.0,'11111222,11111222,99999999' 
TABS,ioos:station:wmo:42043:1,2009-11-02T08:30:00Z,28.9818,-94.9186,2.0,239.0913602,30.11688065,-99999.0,'11111222,11111222,99999999' 
TABS,ioos:station:wmo:42043:1,2009-11-02T09:00:00Z,28.9818,-94.9186,2.0,252.3088946,28.72855374,-99999.0,'11111222,11111222,99999999' 
TABS,ioos:station:wmo:42043:1,2009-11-02T09:30:00Z,28.9818,-94.9186,2.0,239.9842491,26.00789303,-99999.0,'11111222,11111222,99999999' 
TABS,ioos:station:wmo:42043:1,2009-11-02T10:00:00Z,28.9818,-94.9186,2.0,241.3891863,72.6737917,-99999.0,'11111222,11111222,99999999' 
TABS,ioos:station:wmo:42043:1,2009-11-02T10:30:00Z,28.9818,-94.9186,2.0,244.3011619,68.30627277,-99999.0,'11111222,11111222,99999999' 
TABS,ioos:station:wmo:42043:1,2009-11-02T11:00:00Z,28.9818,-94.9186,2.0,241.9336709,67.27058867,-99999.0,'11111222,11111222,99999999' 
TABS,ioos:station:wmo:42043:1,2009-11-02T11:30:00Z,28.9818,-94.9186,2.0,243.1285604,64.47123157,-99999.0,'11111222,11111222,99999999' 
TABS,ioos:station:wmo:42043:1,2009-11-02T12:00:00Z,28.9818,-94.9186,2.0,241.3330128,65.1223249,-99999.0,'11111222,11111222,99999999' 
TABS,ioos:station:wmo:42043:1,2009-11-02T12:30:00Z,28.9818,-94.9186,2.0,243.5950816,70.24858717,-99999.0,'11111222,11111222,99999999' 
TABS,ioos:station:wmo:42043:1,2009-11-02T13:00:00Z,28.9818,-94.9186,2.0,240.8707172,70.38137538,-99999.0,'11111222,11111222,99999999' 
TABS,ioos:station:wmo:42043:1,2009-11-02T13:30:00Z,28.9818,-94.9186,2.0,237.6154478,70.22109441,-99999.0,'11111222,11111222,99999999' 
TABS,ioos:station:wmo:42043:1,2009-11-02T14:00:00Z,28.9818,-94.9186,2.0,242.6884449,62.15901624,-99999.0,'11111222,11111222,99999999' 
TABS,ioos:station:wmo:42043:1,2009-11-02T14:30:00Z,28.9818,-94.9186,2.0,238.8771817,65.00678811,-99999.0,'11111222,11111222,99999999' 
TABS,ioos:station:wmo:42043:1,2009-11-02T15:00:00Z,28.9818,-94.9186,2.0,238.8094812,62.06067757,-99999.0,'11111222,11111222,99999999' 
TABS,ioos:station:wmo:42043:1,2009-11-02T15:30:00Z,28.9818,-94.9186,2.0,238.7425171,63.63709924,-99999.0,'11111222,11111222,99999999' 
TABS,ioos:station:wmo:42043:1,2009-11-02T16:00:00Z,28.9818,-94.9186,2.0,240.8892112,58.80847303,-99999.0,'11111222,11111222,99999999' 
TABS,ioos:station:wmo:42043:1,2009-11-02T16:30:00Z,28.9818,-94.9186,2.0,245.8493175,60.39616047,-99999.0,'11111222,11111222,99999999' 
TABS,ioos:station:wmo:42043:1,2009-11-02T17:00:00Z,28.9818,-94.9186,2.0,247.6153193,59.68742749,-99999.0,'11111222,11111222,99999999' 
TABS,ioos:station:wmo:42043:1,2009-11-02T17:30:00Z,28.9818,-94.9186,2.0,246.359842,59.85255968,-99999.0,'11111222,11111222,99999999' 
TABS,ioos:station:wmo:42043:1,2009-11-02T18:00:00Z,28.9818,-94.9186,2.0,246.2122545,61.46122111,-99999.0,'11111222,11111222,99999999' 
TABS,ioos:station:wmo:42043:1,2009-11-02T18:30:00Z,28.9818,-94.9186,2.0,247.6551742,62.89226503,-99999.0,'11111222,11111222,99999999' 
TABS,ioos:station:wmo:42043:1,2009-11-02T19:00:00Z,28.9818,-94.9186,2.0,250.4603231,59.23097585,-99999.0,'11111222,11111222,99999999' 
TABS,ioos:station:wmo:42043:1,2009-11-02T19:30:00Z,28.9818,-94.9186,2.0,252.3028011,57.93140944,-99999.0,'11111222,11111222,99999999' 
TABS,ioos:station:wmo:42043:1,2009-11-02T20:00:00Z,28.9818,-94.9186,2.0,250.1916514,59.25596088,-99999.0,'11111222,11111222,99999999' 
TABS,ioos:station:wmo:42043:1,2009-11-02T20:30:00Z,28.9818,-94.9186,2.0,251.1797539,56.01468825,-99999.0,'11111222,11111222,99999999' 
TABS,ioos:station:wmo:42043:1,2009-11-02T21:00:00Z,28.9818,-94.9186,2.0,251.3562742,50.42601313,-99999.0,'11111222,11111222,99999999' 
TABS,ioos:station:wmo:42043:1,2009-11-02T21:30:00Z,28.9818,-94.9186,2.0,251.6107965,51.06763848,-99999.0,'11111222,11111222,99999999' 
TABS,ioos:station:wmo:42043:1,2009-11-02T22:00:00Z,28.9818,-94.9186,2.0,244.3993814,50.19789836,-99999.0,'11111222,11111222,99999999' 
TABS,ioos:station:wmo:42043:1,2009-11-02T22:30:00Z,28.9818,-94.9186,2.0,247.6175782,48.74195831,-99999.0,'11111222,11111222,99999999' 
TABS,ioos:station:wmo:42043:1,2009-11-02T23:00:00Z,28.9818,-94.9186,2.0,248.4243414,40.46518627,-99999.0,'11111222,11111222,99999999' 
TABS,ioos:station:wmo:42043:1,2009-11-02T23:30:00Z,28.9818,-94.9186,2.0,244.5899317,39.03626647,-99999.0,'11111222,11111222,99999999' 
TABS,ioos:station:wmo:42043:1,2009-11-03T00:00:00Z,28.9818,-94.9186,2.0,242.5161012,44.63765227,-99999.0,'11111222,11111222,99999999' 
TABS,ioos:station:wmo:42043:1,2009-11-03T00:30:00Z,28.9818,-94.9186,2.0,240.7479303,41.50231921,-99999.0,'11111222,11111222,99999999' 
TABS,ioos:station:wmo:42043:1,2009-11-03T01:00:00Z,28.9818,-94.9186,2.0,240.7274622,41.94625371,-99999.0,'11111222,11111222,99999999' 
TABS,ioos:station:wmo:42043:1,2009-11-03T01:30:00Z,28.9818,-94.9186,2.0,235.8851859,36.69442464,-99999.0,'11111222,11111222,99999999' 
TABS,ioos:station:wmo:42043:1,2009-11-03T02:00:00Z,28.9818,-94.9186,2.0,236.8784708,36.03510094,-99999.0,'11111222,11111222,99999999' 
TABS,ioos:station:wmo:42043:1,2009-11-03T02:30:00Z,28.9818,-94.9186,2.0,230.6013326,34.04714672,-99999.0,'11111222,11111222,99999999' 
TABS,ioos:station:wmo:42043:1,2009-11-03T03:00:00Z,28.9818,-94.9186,2.0,233.3779527,32.32030322,-99999.0,'11111222,11111222,99999999' 
TABS,ioos:station:wmo:42043:1,2009-11-03T03:30:00Z,28.9818,-94.9186,2.0,231.6523427,30.64018603,-99999.0,'11111222,11111222,99999999' 
TABS,ioos:station:wmo:42043:1,2009-11-03T04:00:00Z,28.9818,-94.9186,2.0,229.3215241,27.49270631,-99999.0,'11111222,11111222,99999999' 
TABS,ioos:station:wmo:42043:1,2009-11-03T04:30:00Z,28.9818,-94.9186,2.0,225.5165637,30.56947006,-99999.0,'11111222,11111222,99999999' 
TABS,ioos:station:wmo:42043:1,2009-11-03T05:00:00Z,28.9818,-94.9186,2.0,224.8160903,28.68746939,-99999.0,'11111222,11111222,99999999' 
TABS,ioos:station:wmo:42043:1,2009-11-03T05:30:00Z,28.9818,-94.9186,2.0,219.5243432,32.9033129,-99999.0,'11111222,11111222,99999999' 
TABS,ioos:station:wmo:42043:1,2009-11-03T06:00:00Z,28.9818,-94.9186,2.0,215.3688736,35.96833747,-99999.0,'11111222,11111222,99999999' 
TABS,ioos:station:wmo:42043:1,2009-11-03T06:30:00Z,28.9818,-94.9186,2.0,216.2917379,36.28984569,-99999.0,'11111222,11111222,99999999' 
TABS,ioos:station:wmo:42043:1,2009-11-03T07:00:00Z,28.9818,-94.9186,2.0,214.0708199,41.28724864,-99999.0,'11111222,11111222,99999999' 
TABS,ioos:station:wmo:42043:1,2009-11-03T07:30:00Z,28.9818,-94.9186,2.0,209.5556806,40.62655782,-99999.0,'11111222,11111222,99999999' 
TABS,ioos:station:wmo:42043:1,2009-11-03T08:00:00Z,28.9818,-94.9186,2.0,211.9815033,38.61042605,-99999.0,'11111222,11111222,99999999' 
TABS,ioos:station:wmo:42043:1,2009-11-03T08:30:00Z,28.9818,-94.9186,2.0,213.8978559,45.05859407,-99999.0,'11111222,11111222,99999999' 
TABS,ioos:station:wmo:42043:1,2009-11-03T09:00:00Z,28.9818,-94.9186,2.0,215.6190207,50.58404887,-99999.0,'11111222,11111222,99999999' 
TABS,ioos:station:wmo:42043:1,2009-11-03T09:30:00Z,28.9818,-94.9186,2.0,211.9892094,38.22458502,-99999.0,'11111222,11111222,99999999' 
TABS,ioos:station:wmo:42043:1,2009-11-03T10:00:00Z,28.9818,-94.9186,2.0,219.0260256,43.21260233,-99999.0,'11111222,11111222,99999999' 
TABS,ioos:station:wmo:42043:1,2009-11-03T10:30:00Z,28.9818,-94.9186,2.0,223.664224,40.65554083,-99999.0,'11111222,11111222,99999999' 
TABS,ioos:station:wmo:42043:1,2009-11-03T11:00:00Z,28.9818,-94.9186,2.0,223.0588872,40.08766643,-99999.0,'11111222,11111222,99999999' 
TABS,ioos:station:wmo:42043:1,2009-11-03T11:30:00Z,28.9818,-94.9186,2.0,231.0818568,44.04613263,-99999.0,'11111222,11111222,99999999' 
TABS,ioos:station:wmo:42043:1,2009-11-03T12:00:00Z,28.9818,-94.9186,2.0,234.7082853,37.3181618,-99999.0,'11111222,11111222,99999999' 
TABS,ioos:station:wmo:42043:1,2009-11-03T12:30:00Z,28.9818,-94.9186,2.0,229.9971632,27.19263319,-99999.0,'11111222,11111222,99999999' 
TABS,ioos:station:wmo:42043:1,2009-11-03T13:00:00Z,28.9818,-94.9186,2.0,229.2530175,40.61493568,-99999.0,'11111222,11111222,99999999' 
TABS,ioos:station:wmo:42043:1,2009-11-03T13:30:00Z,28.9818,-94.9186,2.0,233.0241276,44.47407559,-99999.0,'11111222,11111222,99999999' 
TABS,ioos:station:wmo:42043:1,2009-11-03T14:00:00Z,28.9818,-94.9186,2.0,237.4262041,44.26238697,-99999.0,'11111222,11111222,99999999' 
TABS,ioos:station:wmo:42043:1,2009-11-03T14:30:00Z,28.9818,-94.9186,2.0,235.0013477,37.29389494,-99999.0,'11111222,11111222,99999999' 
TABS,ioos:station:wmo:42043:1,2009-11-03T15:00:00Z,28.9818,-94.9186,2.0,232.1042432,31.9591192,-99999.0,'11111222,11111222,99999999' 
TABS,ioos:station:wmo:42043:1,2009-11-03T15:30:00Z,28.9818,-94.9186,2.0,238.9515206,36.1022063,-99999.0,'11111222,11111222,99999999' 
TABS,ioos:station:wmo:42043:1,2009-11-03T16:00:00Z,28.9818,-94.9186,2.0,231.7429721,30.41090758,-99999.0,'11111222,11111222,99999999' 
TABS,ioos:station:wmo:42043:1,2009-11-03T16:30:00Z,28.9818,-94.9186,2.0,229.1964737,29.85632429,-99999.0,'11111222,11111222,99999999' 
TABS,ioos:station:wmo:42043:1,2009-11-03T17:00:00Z,28.9818,-94.9186,2.0,235.8975008,22.3660904,-99999.0,'11111222,11111222,99999999' 
TABS,ioos:station:wmo:42043:1,2009-11-03T17:30:00Z,28.9818,-94.9186,2.0,219.704638,25.51522879,-99999.0,'11111222,11111222,99999999' 
TABS,ioos:station:wmo:42043:1,2009-11-03T18:00:00Z,28.9818,-94.9186,2.0,212.6783375,18.85442388,-99999.0,'11111222,11111222,99999999' 
TABS,ioos:station:wmo:42043:1,2009-11-03T18:30:00Z,28.9818,-94.9186,2.0,206.0186889,16.89202475,-99999.0,'11111222,11111222,99999999' 
TABS,ioos:station:wmo:42043:1,2009-11-03T19:00:00Z,28.9818,-94.9186,2.0,199.9828493,20.60027184,-99999.0,'11111222,11111222,99999999' 
TABS,ioos:station:wmo:42043:1,2009-11-03T19:30:00Z,28.9818,-94.9186,2.0,203.3822132,15.54676172,-99999.0,'11111222,11111222,99999999' 
TABS,ioos:station:wmo:42043:1,2009-11-03T20:00:00Z,28.9818,-94.9186,2.0,204.1994443,13.97839047,-99999.0,'11111222,11111222,99999999' 
TABS,ioos:station:wmo:42043:1,2009-11-03T20:30:00Z,28.9818,-94.9186,2.0,209.6516921,14.53316896,-99999.0,'11111222,11111222,99999999' 
TABS,ioos:station:wmo:42043:1,2009-11-03T21:00:00Z,28.9818,-94.9186,2.0,229.8049585,16.96655828,-99999.0,'11111222,11111222,99999999' 
TABS,ioos:station:wmo:42043:1,2009-11-03T21:30:00Z,28.9818,-94.9186,2.0,248.8942564,17.57921784,-99999.0,'11111222,11111222,99999999' 
TABS,ioos:station:wmo:42043:1,2009-11-03T22:00:00Z,28.9818,-94.9186,2.0,247.2194355,23.91547825,-99999.0,'11111222,11111222,99999999' 
TABS,ioos:station:wmo:42043:1,2009-11-03T22:30:00Z,28.9818,-94.9186,2.0,247.4693675,22.62695074,-99999.0,'11111222,11111222,99999999' 
TABS,ioos:station:wmo:42043:1,2009-11-03T23:00:00Z,28.9818,-94.9186,2.0,253.7995623,27.81441533,-99999.0,'11111222,11111222,99999999' 
TABS,ioos:station:wmo:42043:1,2009-11-03T23:30:00Z,28.9818,-94.9186,2.0,260.6841906,23.72285185,-99999.0,'11111222,11111222,99999999' 
TABS,ioos:station:wmo:42043:1,2009-11-04T00:00:00Z,28.9818,-94.9186,2.0,259.4925251,24.0736578,-99999.0,'11111222,11111222,99999999' 
TABS,ioos:station:wmo:42043:1,2009-11-04T00:30:00Z,28.9818,-94.9186,2.0,263.3364555,29.38850456,-99999.0,'11111222,11111222,99999999' 
TABS,ioos:station:wmo:42043:1,2009-11-04T01:00:00Z,28.9818,-94.9186,2.0,259.0876759,25.40941951,-99999.0,'11111222,11111222,99999999' 
TABS,ioos:station:wmo:42043:1,2009-11-04T01:30:00Z,28.9818,-94.9186,2.0,252.5077264,23.05612717,-99999.0,'11111222,11111222,99999999' 
TABS,ioos:station:wmo:42043:1,2009-11-04T02:00:00Z,28.9818,-94.9186,2.0,241.2265097,23.33056793,-99999.0,'11111222,11111222,99999999' 
TABS,ioos:station:wmo:42043:1,2009-11-04T02:30:00Z,28.9818,-94.9186,2.0,243.0809177,21.73499482,-99999.0,'11111222,11111222,99999999' 
TABS,ioos:station:wmo:42043:1,2009-11-04T03:00:00Z,28.9818,-94.9186,2.0,244.4450774,20.7941939,-99999.0,'11111222,11111222,99999999' 
TABS,ioos:station:wmo:42043:1,2009-11-04T03:30:00Z,28.9818,-94.9186,2.0,240.126551,62.07829975,-99999.0,'11111222,11111222,99999999' 
TABS,ioos:station:wmo:42043:1,2009-11-04T04:00:00Z,28.9818,-94.9186,2.0,234.1331662,64.41387739,-99999.0,'11111222,11111222,99999999' 
TABS,ioos:station:wmo:42043:1,2009-11-04T04:30:00Z,28.9818,-94.9186,2.0,224.0414522,67.65129563,-99999.0,'11111222,11111222,99999999' 
TABS,ioos:station:wmo:42043:1,2009-11-04T05:00:00Z,28.9818,-94.9186,2.0,224.3070016,60.82977067,-99999.0,'11111222,11111222,99999999' 
TABS,ioos:station:wmo:42043:1,2009-11-04T05:30:00Z,28.9818,-94.9186,2.0,233.9183753,53.91110646,-99999.0,'11111222,11111222,99999999' 
TABS,ioos:station:wmo:42043:1,2009-11-04T06:00:00Z,28.9818,-94.9186,2.0,226.6975637,57.753554,-99999.0,'11111222,11111222,99999999' 
TABS,ioos:station:wmo:42043:1,2009-11-04T06:30:00Z,28.9818,-94.9186,2.0,227.3552631,53.33263354,-99999.0,'11111222,11111222,99999999' 
TABS,ioos:station:wmo:42043:1,2009-11-04T07:00:00Z,28.9818,-94.9186,2.0,228.4702274,58.05386895,-99999.0,'11111222,11111222,99999999' 
TABS,ioos:station:wmo:42043:1,2009-11-04T07:30:00Z,28.9818,-94.9186,2.0,232.1088443,60.2775688,-99999.0,'11111222,11111222,99999999' 
TABS,ioos:station:wmo:42043:1,2009-11-04T08:00:00Z,28.9818,-94.9186,2.0,231.9954292,56.37304764,-99999.0,'11111222,11111222,99999999' 
TABS,ioos:station:wmo:42043:1,2009-11-04T08:30:00Z,28.9818,-94.9186,2.0,231.4344084,55.83844285,-99999.0,'11111222,11111222,99999999' 
TABS,ioos:station:wmo:42043:1,2009-11-04T09:00:00Z,28.9818,-94.9186,2.0,234.3040718,49.77045308,-99999.0,'11111222,11111222,99999999' 
TABS,ioos:station:wmo:42043:1,2009-11-04T09:30:00Z,28.9818,-94.9186,2.0,234.2788099,52.36052903,-99999.0,'11111222,11111222,99999999' 
TABS,ioos:station:wmo:42043:1,2009-11-04T10:00:00Z,28.9818,-94.9186,2.0,233.0147866,45.84409231,-99999.0,'11111222,11111222,99999999' 
TABS,ioos:station:wmo:42043:1,2009-11-04T10:30:00Z,28.9818,-94.9186,2.0,229.9111094,44.84674459,-99999.0,'11111222,11111222,99999999' 
TABS,ioos:station:wmo:42043:1,2009-11-04T11:00:00Z,28.9818,-94.9186,2.0,236.7909572,40.93554568,-99999.0,'11111222,11111222,99999999' 
TABS,ioos:station:wmo:42043:1,2009-11-04T11:30:00Z,28.9818,-94.9186,2.0,235.0849113,41.91440087,-99999.0,'11111222,11111222,99999999' 
TABS,ioos:station:wmo:42043:1,2009-11-04T12:00:00Z,28.9818,-94.9186,2.0,235.6213581,48.72005952,-99999.0,'11111222,11111222,99999999' 
TABS,ioos:station:wmo:42043:1,2009-11-04T12:30:00Z,28.9818,-94.9186,2.0,236.926213,36.33774071,-99999.0,'11111222,11111222,99999999' 
TABS,ioos:station:wmo:42043:1,2009-11-04T13:00:00Z,28.9818,-94.9186,2.0,236.1451843,50.2615917,-99999.0,'11111222,11111222,99999999' 
TABS,ioos:station:wmo:42043:1,2009-11-04T13:30:00Z,28.9818,-94.9186,2.0,234.9571465,52.05647414,-99999.0,'11111222,11111222,99999999' 
TABS,ioos:station:wmo:42043:1,2009-11-04T14:00:00Z,28.9818,-94.9186,2.0,238.5325087,53.48561302,-99999.0,'11111222,11111222,99999999' 
TABS,ioos:station:wmo:42043:1,2009-11-04T14:30:00Z,28.9818,-94.9186,2.0,236.7435274,53.46631182,-99999.0,'11111222,11111222,99999999' 
TABS,ioos:station:wmo:42043:1,2009-11-04T15:00:00Z,28.9818,-94.9186,2.0,238.9317448,30.19066081,-99999.0,'11111222,11111222,99999999' 
TABS,ioos:station:wmo:42043:1,2009-11-04T15:30:00Z,28.9818,-94.9186,2.0,236.4259452,25.94892869,-99999.0,'11111222,11111222,99999999' 
TABS,ioos:station:wmo:42043:1,2009-11-04T16:00:00Z,28.9818,-94.9186,2.0,238.5327517,29.09928693,-99999.0,'11111222,11111222,99999999' 